Time,TemperatureF,DewpointF,PressureIn,WindDirection,WindDirectionDegrees,WindSpeedMPH,WindSpeedGustMPH,Humidity,HourlyPrecipIn,Conditions,Clouds,dailyrainin,SoftwareType,DateUTC
2013-01-26 00:02:00,40.6,26.6,30.46,SSE,155,1.0,2.0,57,0.00,,,0.00,meteohub,2013-01-26 06:02:00,
2013-01-26 00:07:00,40.6,26.6,30.45,SSE,149,2.0,2.0,57,0.00,,,0.00,meteohub,2013-01-26 06:07:00,
2013-01-26 00:12:00,40.5,26.4,30.45,SSW,197,3.0,3.0,57,0.00,,,0.00,meteohub,2013-01-26 06:12:00,
2013-01-26 00:17:00,40.5,26.4,30.45,South,183,3.0,4.0,57,0.00,,,0.00,meteohub,2013-01-26 06:17:00,
2013-01-26 00:22:00,40.3,26.2,30.45,South,187,2.0,4.0,57,0.00,,,0.00,meteohub,2013-01-26 06:22:00,
2013-01-26 00:27:00,40.3,26.6,30.45,SSW,201,1.0,4.0,58,0.00,,,0.00,meteohub,2013-01-26 06:27:00,
2013-01-26 00:32:00,40.1,26.6,30.45,SW,214,2.0,4.0,58,0.00,,,0.00,meteohub,2013-01-26 06:32:00,
2013-01-26 00:37:00,39.9,26.4,30.45,SSW,193,1.0,3.0,58,0.00,,,0.00,meteohub,2013-01-26 06:37:00,
2013-01-26 00:42:00,39.7,26.2,30.45,SSW,204,1.0,2.0,58,0.00,,,0.00,meteohub,2013-01-26 06:42:00,
2013-01-26 00:47:00,39.7,26.2,30.45,SSE,149,1.0,2.0,58,0.00,,,0.00,meteohub,2013-01-26 06:47:00,
2013-01-26 00:52:00,39.6,26.4,30.45,SE,144,1.0,2.0,59,0.00,,,0.00,meteohub,2013-01-26 06:52:00,
2013-01-26 00:57:00,39.6,26.4,30.45,SSE,152,1.0,2.0,59,0.00,,,0.00,meteohub,2013-01-26 06:57:00,
2013-01-26 01:02:00,39.4,26.2,30.45,SSE,159,1.0,2.0,59,0.00,,,0.00,meteohub,2013-01-26 07:02:00,
2013-01-26 01:07:00,39.4,26.2,30.44,SSE,153,2.0,2.0,59,0.00,,,0.00,meteohub,2013-01-26 07:07:00,
2013-01-26 01:12:00,39.4,26.6,30.43,SE,138,1.0,3.0,60,0.00,,,0.00,meteohub,2013-01-26 07:12:00,
2013-01-26 01:17:00,39.2,26.4,30.43,ESE,103,1.0,3.0,60,0.00,,,0.00,meteohub,2013-01-26 07:17:00,
2013-01-26 01:22:00,39.0,26.2,30.43,East,96,2.0,3.0,60,0.00,,,0.00,meteohub,2013-01-26 07:22:00,
2013-01-26 01:27:00,38.8,26.6,30.43,ESE,105,2.0,2.0,61,0.00,,,0.00,meteohub,2013-01-26 07:27:00,
2013-01-26 01:32:00,38.8,26.6,30.43,ESE,103,1.0,2.0,61,0.00,,,0.00,meteohub,2013-01-26 07:32:00,
2013-01-26 01:37:00,38.8,26.6,30.43,ESE,103,1.0,2.0,61,0.00,,,0.00,meteohub,2013-01-26 07:37:00,
2013-01-26 01:42:00,38.8,26.6,30.43,East,100,2.0,2.0,61,0.00,,,0.00,meteohub,2013-01-26 07:42:00,
2013-01-26 01:47:00,38.8,26.6,30.43,ESE,103,0.0,2.0,61,0.00,,,0.00,meteohub,2013-01-26 07:47:00,
2013-01-26 01:52:00,38.7,26.4,30.44,ESE,103,0.0,2.0,61,0.00,,,0.00,meteohub,2013-01-26 07:52:00,
2013-01-26 01:57:00,38.7,26.4,30.44,ESE,103,0.0,2.0,61,0.00,,,0.00,meteohub,2013-01-26 07:57:00,
2013-01-26 02:02:00,38.7,26.4,30.44,ESE,103,1.0,0.0,61,0.00,,,0.00,meteohub,2013-01-26 08:02:00,
2013-01-26 02:07:00,38.7,26.4,30.44,ESE,103,0.0,1.0,61,0.00,,,0.00,meteohub,2013-01-26 08:07:00,
2013-01-26 02:12:00,38.7,26.4,30.44,ESE,103,0.0,1.0,61,0.00,,,0.00,meteohub,2013-01-26 08:12:00,
2013-01-26 02:17:00,38.7,26.8,30.44,ESE,103,1.0,1.0,62,0.00,,,0.00,meteohub,2013-01-26 08:17:00,
2013-01-26 02:22:00,38.7,26.8,30.44,East,89,1.0,2.0,62,0.00,,,0.00,meteohub,2013-01-26 08:22:00,
2013-01-26 02:27:00,38.7,26.8,30.44,East,89,1.0,2.0,62,0.00,,,0.00,meteohub,2013-01-26 08:27:00,
2013-01-26 02:32:00,38.7,26.8,30.45,East,89,1.0,2.0,62,0.00,,,0.00,meteohub,2013-01-26 08:32:00,
2013-01-26 02:37:00,38.7,26.8,30.44,East,82,0.0,2.0,62,0.00,,,0.00,meteohub,2013-01-26 08:37:00,
2013-01-26 02:42:00,38.7,26.8,30.44,ENE,78,0.0,1.0,62,0.00,,,0.00,meteohub,2013-01-26 08:42:00,
2013-01-26 02:47:00,38.7,26.8,30.44,ENE,70,2.0,2.0,62,0.00,,,0.00,meteohub,2013-01-26 08:47:00,
2013-01-26 02:52:00,38.7,26.8,30.43,East,82,2.0,3.0,62,0.00,,,0.00,meteohub,2013-01-26 08:52:00,
2013-01-26 02:57:00,38.7,26.8,30.43,East,87,2.0,3.0,62,0.00,,,0.00,meteohub,2013-01-26 08:57:00,
2013-01-26 03:02:00,38.5,27.0,30.43,East,84,2.0,3.0,63,0.00,,,0.00,meteohub,2013-01-26 09:02:00,
2013-01-26 03:07:00,38.5,27.0,30.43,East,91,1.0,2.0,63,0.00,,,0.00,meteohub,2013-01-26 09:07:00,
2013-01-26 03:12:00,38.5,27.0,30.43,East,93,1.0,2.0,63,0.00,,,0.00,meteohub,2013-01-26 09:12:00,
2013-01-26 03:17:00,38.5,27.0,30.43,East,89,2.0,2.0,63,0.00,,,0.00,meteohub,2013-01-26 09:17:00,
2013-01-26 03:22:00,38.5,27.0,30.43,East,100,1.0,2.0,63,0.00,,,0.00,meteohub,2013-01-26 09:22:00,
2013-01-26 03:27:00,38.7,27.1,30.42,ESE,109,1.0,2.0,63,0.00,,,0.00,meteohub,2013-01-26 09:27:00,
2013-01-26 03:32:00,38.7,27.1,30.42,ESE,105,1.0,2.0,63,0.00,,,0.00,meteohub,2013-01-26 09:32:00,
2013-01-26 03:37:00,38.7,27.1,30.42,ESE,105,3.0,3.0,63,0.00,,,0.00,meteohub,2013-01-26 09:37:00,
2013-01-26 03:42:00,38.7,27.1,30.41,ESE,109,3.0,3.0,63,0.00,,,0.00,meteohub,2013-01-26 09:42:00,
2013-01-26 03:47:00,38.7,27.1,30.41,ESE,108,3.0,3.0,63,0.00,,,0.00,meteohub,2013-01-26 09:47:00,
2013-01-26 03:52:00,38.5,27.0,30.41,East,91,2.0,4.0,63,0.00,,,0.00,meteohub,2013-01-26 09:52:00,
2013-01-26 03:57:00,38.5,27.0,30.41,East,86,3.0,4.0,63,0.00,,,0.00,meteohub,2013-01-26 09:57:00,
2013-01-26 04:02:00,38.5,27.0,30.40,ESE,105,1.0,4.0,63,0.00,,,0.00,meteohub,2013-01-26 10:02:00,
2013-01-26 04:07:00,38.3,27.1,30.40,East,98,2.0,3.0,64,0.00,,,0.00,meteohub,2013-01-26 10:07:00,
2013-01-26 04:12:00,38.1,27.0,30.40,East,98,2.0,3.0,64,0.00,,,0.00,meteohub,2013-01-26 10:12:00,
2013-01-26 04:17:00,37.9,26.8,30.40,ESE,117,3.0,3.0,64,0.00,,,0.00,meteohub,2013-01-26 10:17:00,
2013-01-26 04:22:00,37.9,26.8,30.40,East,94,3.0,3.0,64,0.00,,,0.00,meteohub,2013-01-26 10:22:00,
2013-01-26 04:27:00,37.8,27.1,30.40,ESE,120,2.0,4.0,65,0.00,,,0.00,meteohub,2013-01-26 10:27:00,
2013-01-26 04:32:00,37.6,27.0,30.40,ESE,108,2.0,4.0,65,0.00,,,0.00,meteohub,2013-01-26 10:32:00,
2013-01-26 04:37:00,37.6,27.3,30.40,SE,124,2.0,4.0,66,0.00,,,0.00,meteohub,2013-01-26 10:37:00,
2013-01-26 04:42:00,37.2,27.0,30.40,ESE,115,2.0,3.0,66,0.00,,,0.00,meteohub,2013-01-26 10:42:00,
2013-01-26 04:47:00,37.0,26.8,30.40,ESE,121,2.0,3.0,66,0.00,,,0.00,meteohub,2013-01-26 10:47:00,
2013-01-26 04:52:00,36.9,27.0,30.40,ESE,121,1.0,3.0,67,0.00,,,0.00,meteohub,2013-01-26 10:52:00,
2013-01-26 04:57:00,36.9,27.0,30.40,ESE,118,2.0,3.0,67,0.00,,,0.00,meteohub,2013-01-26 10:57:00,
2013-01-26 05:02:00,36.7,27.1,30.40,ESE,119,2.0,3.0,68,0.00,,,0.00,meteohub,2013-01-26 11:02:00,
2013-01-26 05:07:00,36.3,26.8,30.40,ESE,105,2.0,2.0,68,0.00,,,0.00,meteohub,2013-01-26 11:07:00,
2013-01-26 05:12:00,36.3,27.1,30.40,ESE,106,2.0,2.0,69,0.00,,,0.00,meteohub,2013-01-26 11:12:00,
2013-01-26 05:17:00,36.1,27.0,30.40,ESE,105,1.0,2.0,69,0.00,,,0.00,meteohub,2013-01-26 11:17:00,
2013-01-26 05:22:00,36.0,26.8,30.40,East,84,1.0,2.0,69,0.00,,,0.00,meteohub,2013-01-26 11:22:00,
2013-01-26 05:27:00,36.1,27.0,30.40,ENE,73,1.0,2.0,69,0.00,,,0.00,meteohub,2013-01-26 11:27:00,
2013-01-26 05:32:00,36.1,27.0,30.40,ENE,78,1.0,2.0,69,0.00,,,0.00,meteohub,2013-01-26 11:32:00,
2013-01-26 05:37:00,36.0,26.8,30.40,East,87,2.0,3.0,69,0.00,,,0.00,meteohub,2013-01-26 11:37:00,
2013-01-26 05:42:00,35.8,26.6,30.40,East,91,3.0,3.0,69,0.00,,,0.00,meteohub,2013-01-26 11:42:00,
2013-01-26 05:47:00,35.6,26.4,30.40,East,91,3.0,3.0,69,0.00,,,0.00,meteohub,2013-01-26 11:47:00,
2013-01-26 05:52:00,35.6,26.4,30.40,East,84,4.0,4.0,69,0.00,,,0.00,meteohub,2013-01-26 11:52:00,
2013-01-26 05:57:00,35.4,26.2,30.40,East,92,2.0,4.0,69,0.00,,,0.00,meteohub,2013-01-26 11:57:00,
2013-01-26 06:02:00,35.4,26.2,30.40,ENE,75,3.0,4.0,69,0.00,,,0.00,meteohub,2013-01-26 12:02:00,
2013-01-26 06:07:00,35.4,26.2,30.40,ENE,68,3.0,4.0,69,0.00,,,0.00,meteohub,2013-01-26 12:07:00,
2013-01-26 06:12:00,35.4,25.9,30.40,ENE,65,4.0,4.0,68,0.00,,,0.00,meteohub,2013-01-26 12:12:00,
2013-01-26 06:17:00,35.2,25.7,30.41,ENE,70,4.0,4.0,68,0.00,,,0.00,meteohub,2013-01-26 12:17:00,
2013-01-26 06:22:00,35.1,25.5,30.41,ENE,70,2.0,5.0,68,0.00,,,0.00,meteohub,2013-01-26 12:22:00,
2013-01-26 06:27:00,35.1,25.5,30.41,ENE,63,2.0,5.0,68,0.00,,,0.00,meteohub,2013-01-26 12:27:00,
2013-01-26 06:32:00,35.1,25.5,30.41,East,86,2.0,5.0,68,0.00,,,0.00,meteohub,2013-01-26 12:32:00,
2013-01-26 06:37:00,35.1,25.2,30.41,ESE,109,4.0,4.0,67,0.00,,,0.00,meteohub,2013-01-26 12:37:00,
2013-01-26 06:42:00,35.2,25.3,30.41,East,96,4.0,4.0,67,0.00,,,0.00,meteohub,2013-01-26 12:42:00,
2013-01-26 06:47:00,35.1,25.2,30.41,East,98,2.0,5.0,67,0.00,,,0.00,meteohub,2013-01-26 12:47:00,
2013-01-26 06:52:00,34.9,25.0,30.41,East,91,2.0,5.0,67,0.00,,,0.00,meteohub,2013-01-26 12:52:00,
2013-01-26 06:57:00,34.9,25.0,30.41,East,97,2.0,5.0,67,0.00,,,0.00,meteohub,2013-01-26 12:57:00,
2013-01-26 07:02:00,34.9,25.0,30.41,ESE,107,4.0,4.0,67,0.00,,,0.00,meteohub,2013-01-26 13:02:00,
2013-01-26 07:07:00,35.1,24.8,30.41,East,99,4.0,6.0,66,0.00,,,0.00,meteohub,2013-01-26 13:07:00,
2013-01-26 07:12:00,35.1,24.8,30.41,East,101,5.0,6.0,66,0.00,,,0.00,meteohub,2013-01-26 13:12:00,
2013-01-26 07:17:00,35.2,24.6,30.41,East,87,5.0,6.0,65,0.00,,,0.00,meteohub,2013-01-26 13:17:00,
2013-01-26 07:22:00,35.2,24.6,30.41,East,96,6.0,6.0,65,0.00,,,0.00,meteohub,2013-01-26 13:22:00,
2013-01-26 07:27:00,35.4,24.4,30.41,ENE,67,5.0,6.0,64,0.00,,,0.00,meteohub,2013-01-26 13:27:00,
2013-01-26 07:32:00,35.4,24.4,30.41,ESE,115,4.0,6.0,64,0.00,,,0.00,meteohub,2013-01-26 13:32:00,
2013-01-26 07:37:00,35.6,24.6,30.41,ESE,109,5.0,7.0,64,0.00,,,0.00,meteohub,2013-01-26 13:37:00,
2013-01-26 07:42:00,35.8,24.4,30.42,East,95,4.0,7.0,63,0.00,,,0.00,meteohub,2013-01-26 13:42:00,
2013-01-26 07:47:00,36.1,24.8,30.42,ESE,119,6.0,8.0,63,0.00,,,0.00,meteohub,2013-01-26 13:47:00,
2013-01-26 07:52:00,36.1,24.4,30.42,ESE,111,7.0,9.0,62,0.00,,,0.00,meteohub,2013-01-26 13:52:00,
2013-01-26 07:57:00,36.3,24.6,30.42,East,80,4.0,10.0,62,0.00,,,0.00,meteohub,2013-01-26 13:57:00,
2013-01-26 08:02:00,36.5,24.3,30.42,ESE,103,6.0,11.0,61,0.00,,,0.00,meteohub,2013-01-26 14:02:00,
2013-01-26 08:07:00,36.3,24.1,30.42,ESE,108,7.0,11.0,61,0.00,,,0.00,meteohub,2013-01-26 14:07:00,
2013-01-26 08:12:00,36.5,24.3,30.42,ESE,111,5.0,10.0,61,0.00,,,0.00,meteohub,2013-01-26 14:12:00,
2013-01-26 08:17:00,36.7,24.4,30.42,SE,129,6.0,9.0,61,0.00,,,0.00,meteohub,2013-01-26 14:17:00,
2013-01-26 08:22:00,36.9,24.6,30.43,ESE,108,7.0,9.0,61,0.00,,,0.00,meteohub,2013-01-26 14:22:00,
2013-01-26 08:27:00,36.9,24.6,30.43,ESE,118,7.0,8.0,61,0.00,,,0.00,meteohub,2013-01-26 14:27:00,
2013-01-26 08:32:00,37.0,24.8,30.42,SE,130,5.0,9.0,61,0.00,,,0.00,meteohub,2013-01-26 14:32:00,
2013-01-26 08:37:00,37.6,25.0,30.43,ESE,117,8.0,9.0,60,0.00,,,0.00,meteohub,2013-01-26 14:37:00,
2013-01-26 08:42:00,37.8,25.2,30.43,SE,129,4.0,9.0,60,0.00,,,0.00,meteohub,2013-01-26 14:42:00,
2013-01-26 08:47:00,38.1,25.0,30.43,ESE,121,6.0,9.0,59,0.00,,,0.00,meteohub,2013-01-26 14:47:00,
2013-01-26 08:52:00,38.5,25.3,30.43,ESE,122,6.0,9.0,59,0.00,,,0.00,meteohub,2013-01-26 14:52:00,
2013-01-26 08:57:00,38.8,25.3,30.43,ESE,119,4.0,7.0,58,0.00,,,0.00,meteohub,2013-01-26 14:57:00,
2013-01-26 09:02:00,39.0,25.5,30.43,ESE,122,6.0,10.0,58,0.00,,,0.00,meteohub,2013-01-26 15:02:00,
2013-01-26 09:07:00,39.4,25.9,30.43,ESE,105,6.0,10.0,58,0.00,,,0.00,meteohub,2013-01-26 15:07:00,
2013-01-26 09:12:00,39.9,25.9,30.43,ESE,119,6.0,10.0,57,0.00,,,0.00,meteohub,2013-01-26 15:12:00,
2013-01-26 09:17:00,40.3,26.2,30.43,SE,127,6.0,9.0,57,0.00,,,0.00,meteohub,2013-01-26 15:17:00,
2013-01-26 09:22:00,40.8,26.4,30.43,SE,134,6.0,9.0,56,0.00,,,0.00,meteohub,2013-01-26 15:22:00,
2013-01-26 09:27:00,41.7,26.2,30.43,SE,138,5.0,9.0,54,0.00,,,0.00,meteohub,2013-01-26 15:27:00,
2013-01-26 09:32:00,42.3,26.4,30.43,SW,219,6.0,11.0,53,0.00,,,0.00,meteohub,2013-01-26 15:32:00,
2013-01-26 09:37:00,42.6,26.2,30.43,SSE,150,8.0,11.0,52,0.00,,,0.00,meteohub,2013-01-26 15:37:00,
2013-01-26 09:42:00,42.8,26.4,30.43,SSE,150,6.0,11.0,52,0.00,,,0.00,meteohub,2013-01-26 15:42:00,
2013-01-26 09:47:00,43.2,26.8,30.43,SSE,149,3.0,11.0,52,0.00,,,0.00,meteohub,2013-01-26 15:47:00,
2013-01-26 09:52:00,43.3,27.0,30.43,South,173,6.0,11.0,52,0.00,,,0.00,meteohub,2013-01-26 15:52:00,
2013-01-26 09:57:00,43.3,27.0,30.43,South,184,6.0,11.0,52,0.00,,,0.00,meteohub,2013-01-26 15:57:00,
2013-01-26 10:02:00,43.7,26.8,30.43,South,180,3.0,10.0,51,0.00,,,0.00,meteohub,2013-01-26 16:02:00,
2013-01-26 10:07:00,43.7,26.8,30.43,SSW,193,4.0,9.0,51,0.00,,,0.00,meteohub,2013-01-26 16:07:00,
2013-01-26 10:12:00,43.9,27.0,30.43,South,179,5.0,8.0,51,0.00,,,0.00,meteohub,2013-01-26 16:12:00,
2013-01-26 10:17:00,43.7,26.8,30.43,South,183,3.0,8.0,51,0.00,,,0.00,meteohub,2013-01-26 16:17:00,
2013-01-26 10:22:00,43.7,26.8,30.43,South,176,5.0,8.0,51,0.00,,,0.00,meteohub,2013-01-26 16:22:00,
2013-01-26 10:27:00,44.1,27.1,30.43,South,172,7.0,10.0,51,0.00,,,0.00,meteohub,2013-01-26 16:27:00,
2013-01-26 10:32:00,44.8,27.3,30.43,SE,132,6.0,10.0,50,0.00,,,0.00,meteohub,2013-01-26 16:32:00,
2013-01-26 10:37:00,45.1,27.1,30.43,SE,133,2.0,8.0,49,0.00,,,0.00,meteohub,2013-01-26 16:37:00,
2013-01-26 10:42:00,45.5,27.0,30.43,SE,130,7.0,10.0,48,0.00,,,0.00,meteohub,2013-01-26 16:42:00,
2013-01-26 10:47:00,45.7,27.1,30.43,ESE,111,8.0,11.0,48,0.00,,,0.00,meteohub,2013-01-26 16:47:00,
2013-01-26 10:52:00,46.6,27.5,30.43,SE,129,6.0,11.0,47,0.00,,,0.00,meteohub,2013-01-26 16:52:00,
2013-01-26 10:57:00,46.8,27.1,30.42,SSE,166,8.0,13.0,46,0.00,,,0.00,meteohub,2013-01-26 16:57:00,
2013-01-26 11:02:00,47.3,27.0,30.42,South,183,5.0,15.0,45,0.00,,,0.00,meteohub,2013-01-26 17:02:00,
2013-01-26 11:07:00,47.5,26.6,30.41,SE,129,12.0,15.0,44,0.00,,,0.00,meteohub,2013-01-26 17:07:00,
2013-01-26 11:12:00,47.7,26.8,30.41,SSE,152,11.0,16.0,44,0.00,,,0.00,meteohub,2013-01-26 17:12:00,
2013-01-26 11:18:00,48.0,27.1,30.41,SE,129,5.0,16.0,44,0.00,,,0.00,meteohub,2013-01-26 17:18:00,
2013-01-26 11:23:00,48.6,27.1,30.41,SE,127,14.0,17.0,43,0.00,,,0.00,meteohub,2013-01-26 17:23:00,
2013-01-26 11:28:00,49.1,27.5,30.40,SSW,204,9.0,18.0,43,0.00,,,0.00,meteohub,2013-01-26 17:28:00,
2013-01-26 11:33:00,49.8,27.7,30.40,SSE,149,12.0,18.0,42,0.00,,,0.00,meteohub,2013-01-26 17:33:00,
2013-01-26 11:38:00,50.0,27.1,30.39,ESE,115,15.0,18.0,41,0.00,,,0.00,meteohub,2013-01-26 17:38:00,
2013-01-26 11:43:00,50.4,27.5,30.38,SE,134,5.0,19.0,41,0.00,,,0.00,meteohub,2013-01-26 17:43:00,
2013-01-26 11:48:00,50.5,27.7,30.38,SE,140,7.0,19.0,41,0.00,,,0.00,meteohub,2013-01-26 17:48:00,
2013-01-26 11:53:00,50.7,27.3,30.38,South,183,9.0,19.0,40,0.00,,,0.00,meteohub,2013-01-26 17:53:00,
2013-01-26 11:58:00,51.1,27.7,30.38,SSE,153,8.0,19.0,40,0.00,,,0.00,meteohub,2013-01-26 17:58:00,
2013-01-26 12:03:00,51.4,27.9,30.38,SE,136,11.0,20.0,40,0.00,,,0.00,meteohub,2013-01-26 18:03:00,
2013-01-26 12:08:00,51.6,27.5,30.37,South,181,12.0,20.0,39,0.00,,,0.00,meteohub,2013-01-26 18:08:00,
2013-01-26 12:13:00,51.4,27.3,30.37,South,173,10.0,20.0,39,0.00,,,0.00,meteohub,2013-01-26 18:13:00,
2013-01-26 12:18:00,51.6,27.5,30.36,SSE,149,15.0,18.0,39,0.00,,,0.00,meteohub,2013-01-26 18:18:00,
2013-01-26 12:23:00,51.4,27.9,30.35,SE,124,10.0,20.0,40,0.00,,,0.00,meteohub,2013-01-26 18:23:00,
2013-01-26 12:28:00,51.4,28.6,30.35,ESE,118,12.0,20.0,41,0.00,,,0.00,meteohub,2013-01-26 18:28:00,
2013-01-26 12:33:00,51.8,28.2,30.35,SSE,165,9.0,20.0,40,0.00,,,0.00,meteohub,2013-01-26 18:33:00,
2013-01-26 12:39:00,52.3,28.8,30.35,SSE,149,12.0,20.0,40,0.00,,,0.00,meteohub,2013-01-26 18:39:00,
2013-01-26 12:44:00,52.5,28.9,30.34,South,169,12.0,17.0,40,0.00,,,0.00,meteohub,2013-01-26 18:44:00,
2013-01-26 12:49:00,52.9,29.3,30.34,SE,133,13.0,18.0,40,0.00,,,0.00,meteohub,2013-01-26 18:49:00,
2013-01-26 12:54:00,52.9,29.3,30.34,SSW,203,8.0,19.0,40,0.00,,,0.00,meteohub,2013-01-26 18:54:00,
2013-01-26 12:59:00,53.4,29.7,30.34,SSE,165,12.0,19.0,40,0.00,,,0.00,meteohub,2013-01-26 18:59:00,
2013-01-26 13:04:00,53.4,29.7,30.33,SSE,157,7.0,19.0,40,0.00,,,0.00,meteohub,2013-01-26 19:04:00,
2013-01-26 13:09:00,53.6,29.8,30.32,ESE,112,7.0,20.0,40,0.00,,,0.00,meteohub,2013-01-26 19:09:00,
2013-01-26 13:14:00,54.0,29.5,30.32,SE,127,10.0,20.0,39,0.00,,,0.00,meteohub,2013-01-26 19:14:00,
2013-01-26 13:19:00,54.1,29.1,30.32,South,180,9.0,20.0,38,0.00,,,0.00,meteohub,2013-01-26 19:19:00,
2013-01-26 13:24:00,54.1,29.1,30.31,SW,214,6.0,20.0,38,0.00,,,0.00,meteohub,2013-01-26 19:24:00,
2013-01-26 13:29:00,54.1,29.7,30.31,SSE,153,10.0,22.0,39,0.00,,,0.00,meteohub,2013-01-26 19:29:00,
2013-01-26 13:34:00,54.0,30.2,30.30,SE,138,11.0,22.0,40,0.00,,,0.00,meteohub,2013-01-26 19:34:00,
2013-01-26 13:39:00,54.0,30.2,30.30,SE,124,13.0,22.0,40,0.00,,,0.00,meteohub,2013-01-26 19:39:00,
2013-01-26 13:44:00,54.0,29.5,30.30,SE,127,13.0,21.0,39,0.00,,,0.00,meteohub,2013-01-26 19:44:00,
2013-01-26 13:49:00,54.0,30.2,30.29,SE,139,11.0,22.0,40,0.00,,,0.00,meteohub,2013-01-26 19:49:00,
2013-01-26 13:54:00,54.3,30.6,30.29,SE,138,13.0,22.0,40,0.00,,,0.00,meteohub,2013-01-26 19:54:00,
2013-01-26 13:59:00,54.5,30.0,30.29,SSE,164,7.0,22.0,39,0.00,,,0.00,meteohub,2013-01-26 19:59:00,
2013-01-26 14:04:00,54.5,30.7,30.29,ESE,120,15.0,21.0,40,0.00,,,0.00,meteohub,2013-01-26 20:04:00,
2013-01-26 14:09:00,54.7,30.9,30.28,SSW,195,9.0,21.0,40,0.00,,,0.00,meteohub,2013-01-26 20:09:00,
2013-01-26 14:14:00,55.2,30.7,30.28,SE,136,11.0,21.0,39,0.00,,,0.00,meteohub,2013-01-26 20:14:00,
2013-01-26 14:19:00,55.0,30.6,30.28,SE,140,9.0,20.0,39,0.00,,,0.00,meteohub,2013-01-26 20:19:00,
2013-01-26 14:24:00,55.6,31.1,30.27,South,176,7.0,20.0,39,0.00,,,0.00,meteohub,2013-01-26 20:24:00,
2013-01-26 14:29:00,55.6,31.1,30.27,SSE,149,10.0,19.0,39,0.00,,,0.00,meteohub,2013-01-26 20:29:00,
2013-01-26 14:34:00,55.6,31.1,30.27,South,172,7.0,22.0,39,0.00,,,0.00,meteohub,2013-01-26 20:34:00,
2013-01-26 14:39:00,55.9,32.0,30.27,SE,127,18.0,22.0,40,0.00,,,0.00,meteohub,2013-01-26 20:39:00,
2013-01-26 14:44:00,55.9,31.3,30.27,SSE,165,8.0,19.0,39,0.00,,,0.00,meteohub,2013-01-26 20:44:00,
2013-01-26 14:49:00,55.9,32.0,30.26,SSE,153,9.0,19.0,40,0.00,,,0.00,meteohub,2013-01-26 20:49:00,
2013-01-26 14:54:00,56.1,32.2,30.27,SE,127,10.0,19.0,40,0.00,,,0.00,meteohub,2013-01-26 20:54:00,
2013-01-26 14:59:00,56.3,31.6,30.27,SSE,148,18.0,19.0,39,0.00,,,0.00,meteohub,2013-01-26 20:59:00,
2013-01-26 15:04:00,56.1,32.2,30.26,SSE,159,13.0,19.0,40,0.00,,,0.00,meteohub,2013-01-26 21:04:00,
2013-01-26 15:09:00,55.9,32.5,30.26,South,184,14.0,19.0,41,0.00,,,0.00,meteohub,2013-01-26 21:09:00,
2013-01-26 15:14:00,55.9,32.5,30.26,SE,135,14.0,22.0,41,0.00,,,0.00,meteohub,2013-01-26 21:14:00,
2013-01-26 15:19:00,55.9,33.3,30.26,ESE,119,16.0,22.0,42,0.00,,,0.00,meteohub,2013-01-26 21:19:00,
2013-01-26 15:24:00,56.1,34.0,30.26,South,174,9.0,20.0,43,0.00,,,0.00,meteohub,2013-01-26 21:24:00,
2013-01-26 15:29:00,55.9,34.3,30.26,SSE,152,13.0,20.0,44,0.00,,,0.00,meteohub,2013-01-26 21:29:00,
2013-01-26 15:34:00,55.6,34.5,30.26,ESE,105,10.0,21.0,45,0.00,,,0.00,meteohub,2013-01-26 21:34:00,
2013-01-26 15:39:00,55.0,34.7,30.26,SSE,147,14.0,21.0,46,0.00,,,0.00,meteohub,2013-01-26 21:39:00,
2013-01-26 15:44:00,54.9,35.6,30.26,SE,146,16.0,21.0,48,0.00,,,0.00,meteohub,2013-01-26 21:44:00,
2013-01-26 15:49:00,54.7,35.4,30.26,SSE,149,11.0,20.0,48,0.00,,,0.00,meteohub,2013-01-26 21:49:00,
2013-01-26 15:54:00,54.5,35.8,30.25,SSW,211,5.0,20.0,49,0.00,,,0.00,meteohub,2013-01-26 21:54:00,
2013-01-26 15:59:00,54.1,36.0,30.26,SSE,162,14.0,19.0,50,0.00,,,0.00,meteohub,2013-01-26 21:59:00,
2013-01-26 16:04:00,54.0,36.3,30.26,SSE,165,13.0,18.0,51,0.00,,,0.00,meteohub,2013-01-26 22:04:00,
2013-01-26 16:09:00,53.8,36.1,30.25,South,173,9.0,18.0,51,0.00,,,0.00,meteohub,2013-01-26 22:09:00,
2013-01-26 16:14:00,53.6,36.0,30.25,SSE,163,13.0,18.0,51,0.00,,,0.00,meteohub,2013-01-26 22:14:00,
2013-01-26 16:19:00,53.2,35.6,30.26,SSE,163,12.0,18.0,51,0.00,,,0.00,meteohub,2013-01-26 22:19:00,
2013-01-26 16:24:00,53.1,36.0,30.25,SW,217,5.0,17.0,52,0.00,,,0.00,meteohub,2013-01-26 22:24:00,
2013-01-26 16:29:00,52.9,35.8,30.26,SSE,152,9.0,17.0,52,0.00,,,0.00,meteohub,2013-01-26 22:29:00,
2013-01-26 16:34:00,52.5,35.4,30.26,SW,217,11.0,15.0,52,0.00,,,0.00,meteohub,2013-01-26 22:34:00,
2013-01-26 16:39:00,52.3,35.8,30.25,SSW,212,4.0,15.0,53,0.00,,,0.00,meteohub,2013-01-26 22:39:00,
2013-01-26 16:44:00,52.3,35.8,30.26,SSW,203,6.0,16.0,53,0.00,,,0.00,meteohub,2013-01-26 22:44:00,
2013-01-26 16:49:00,52.2,35.6,30.25,South,185,5.0,16.0,53,0.00,,,0.00,meteohub,2013-01-26 22:49:00,
2013-01-26 16:54:00,52.2,36.0,30.25,South,170,11.0,12.0,54,0.00,,,0.00,meteohub,2013-01-26 22:54:00,
2013-01-26 16:59:00,52.2,36.0,30.25,SSW,194,6.0,15.0,54,0.00,,,0.00,meteohub,2013-01-26 22:59:00,
2013-01-26 17:04:00,52.0,36.3,30.25,SSW,208,6.0,15.0,55,0.00,,,0.00,meteohub,2013-01-26 23:04:00,
2013-01-26 17:10:00,52.0,36.3,30.25,South,170,7.0,15.0,55,0.00,,,0.00,meteohub,2013-01-26 23:10:00,
2013-01-26 17:15:00,52.0,36.9,30.25,South,183,10.0,16.0,56,0.00,,,0.00,meteohub,2013-01-26 23:15:00,
2013-01-26 17:20:00,51.8,36.7,30.25,SW,218,8.0,16.0,56,0.00,,,0.00,meteohub,2013-01-26 23:20:00,
2013-01-26 17:25:00,51.6,36.9,30.25,SSE,149,10.0,16.0,57,0.00,,,0.00,meteohub,2013-01-26 23:25:00,
2013-01-26 17:30:00,51.3,37.0,30.25,South,176,9.0,15.0,58,0.00,,,0.00,meteohub,2013-01-26 23:30:00,
2013-01-26 17:35:00,51.1,37.2,30.25,SSW,210,9.0,15.0,59,0.00,,,0.00,meteohub,2013-01-26 23:35:00,
2013-01-26 17:40:00,50.7,36.9,30.25,South,177,5.0,15.0,59,0.00,,,0.00,meteohub,2013-01-26 23:40:00,
2013-01-26 17:45:00,50.5,37.2,30.25,SSW,200,12.0,16.0,60,0.00,,,0.00,meteohub,2013-01-26 23:45:00,
2013-01-26 17:50:00,50.5,37.2,30.25,SSE,147,12.0,16.0,60,0.00,,,0.00,meteohub,2013-01-26 23:50:00,
2013-01-26 17:55:00,50.4,37.4,30.25,SSE,165,7.0,16.0,61,0.00,,,0.00,meteohub,2013-01-26 23:55:00,
2013-01-26 18:00:00,50.2,37.2,30.25,SE,134,10.0,15.0,61,0.00,,,0.00,meteohub,2013-01-27 00:00:00,
2013-01-26 18:05:00,50.2,37.6,30.24,SE,127,14.0,14.0,62,0.00,,,0.00,meteohub,2013-01-27 00:05:00,
2013-01-26 18:10:00,50.2,37.6,30.24,SE,142,7.0,15.0,62,0.00,,,0.00,meteohub,2013-01-27 00:10:00,
2013-01-26 18:15:00,50.2,37.6,30.25,South,184,15.0,21.0,62,0.00,,,0.00,meteohub,2013-01-27 00:15:00,
2013-01-26 18:20:00,49.8,37.4,30.25,SE,136,14.0,21.0,62,0.00,,,0.00,meteohub,2013-01-27 00:20:00,
2013-01-26 18:25:00,49.6,37.2,30.25,SE,138,8.0,16.0,62,0.00,,,0.00,meteohub,2013-01-27 00:25:00,
2013-01-26 18:30:00,49.6,37.2,30.24,SE,133,7.0,16.0,62,0.00,,,0.00,meteohub,2013-01-27 00:30:00,
2013-01-26 18:35:00,49.5,37.0,30.25,WSW,238,5.0,16.0,62,0.00,,,0.00,meteohub,2013-01-27 00:35:00,
2013-01-26 18:40:00,49.3,36.9,30.24,SE,130,10.0,16.0,62,0.00,,,0.00,meteohub,2013-01-27 00:40:00,
2013-01-26 18:45:00,49.3,37.2,30.24,SE,127,11.0,16.0,63,0.00,,,0.00,meteohub,2013-01-27 00:45:00,
2013-01-26 18:50:00,49.3,37.2,30.24,SE,143,8.0,15.0,63,0.00,,,0.00,meteohub,2013-01-27 00:50:00,
2013-01-26 18:55:00,49.1,37.0,30.23,ESE,119,11.0,15.0,63,0.00,,,0.00,meteohub,2013-01-27 00:55:00,
2013-01-26 19:00:00,49.1,37.0,30.23,SE,139,9.0,17.0,63,0.00,,,0.00,meteohub,2013-01-27 01:00:00,
2013-01-26 19:05:00,49.1,37.4,30.23,SE,138,9.0,17.0,64,0.00,,,0.00,meteohub,2013-01-27 01:05:00,
2013-01-26 19:10:00,48.9,37.2,30.23,ESE,121,11.0,19.0,64,0.00,,,0.00,meteohub,2013-01-27 01:10:00,
2013-01-26 19:15:00,48.9,37.2,30.23,ESE,115,15.0,19.0,64,0.00,,,0.00,meteohub,2013-01-27 01:15:00,
2013-01-26 19:20:00,48.9,37.2,30.23,ESE,121,9.0,19.0,64,0.00,,,0.00,meteohub,2013-01-27 01:20:00,
2013-01-26 19:25:00,48.9,37.2,30.24,South,179,10.0,16.0,64,0.00,,,0.00,meteohub,2013-01-27 01:25:00,
2013-01-26 19:30:00,48.9,37.2,30.24,SSE,158,7.0,16.0,64,0.00,,,0.00,meteohub,2013-01-27 01:30:00,
2013-01-26 19:35:00,48.7,37.0,30.23,SSE,153,4.0,18.0,64,0.00,,,0.00,meteohub,2013-01-27 01:35:00,
2013-01-26 19:40:00,48.7,37.6,30.23,SE,124,10.0,18.0,65,0.00,,,0.00,meteohub,2013-01-27 01:40:00,
2013-01-26 19:45:00,48.6,37.8,30.22,SE,128,17.0,22.0,66,0.00,,,0.00,meteohub,2013-01-27 01:45:00,
2013-01-26 19:50:00,48.0,37.6,30.23,SE,136,13.0,23.0,67,0.00,,,0.00,meteohub,2013-01-27 01:50:00,
2013-01-26 19:55:00,47.8,37.4,30.22,SSE,155,5.0,23.0,67,0.00,,,0.00,meteohub,2013-01-27 01:55:00,
2013-01-26 20:00:00,47.7,37.6,30.22,SE,137,14.0,21.0,68,0.00,,,0.00,meteohub,2013-01-27 02:00:00,
2013-01-26 20:05:00,47.5,37.0,30.22,SE,129,8.0,21.0,67,0.00,,,0.00,meteohub,2013-01-27 02:05:00,
2013-01-26 20:10:00,47.5,37.0,30.22,SE,130,8.0,19.0,67,0.00,,,0.00,meteohub,2013-01-27 02:10:00,
2013-01-26 20:15:00,47.3,36.9,30.22,SSW,195,9.0,17.0,67,0.00,,,0.00,meteohub,2013-01-27 02:15:00,
2013-01-26 20:20:00,47.3,36.9,30.22,SE,132,14.0,17.0,67,0.00,,,0.00,meteohub,2013-01-27 02:20:00,
2013-01-26 20:25:00,47.1,36.7,30.22,SSE,148,11.0,17.0,67,0.00,,,0.00,meteohub,2013-01-27 02:25:00,
2013-01-26 20:30:00,47.1,36.7,30.22,SE,136,14.0,18.0,67,0.00,,,0.00,meteohub,2013-01-27 02:30:00,
2013-01-26 20:35:00,47.1,37.0,30.22,SE,133,10.0,18.0,68,0.00,,,0.00,meteohub,2013-01-27 02:35:00,
2013-01-26 20:40:00,46.9,36.9,30.21,SE,132,6.0,17.0,68,0.00,,,0.00,meteohub,2013-01-27 02:40:00,
2013-01-26 20:46:00,46.8,36.7,30.21,SSE,152,9.0,17.0,68,0.00,,,0.00,meteohub,2013-01-27 02:46:00,
2013-01-26 20:51:00,46.8,37.2,30.21,SE,129,14.0,14.0,69,0.00,,,0.00,meteohub,2013-01-27 02:51:00,
2013-01-26 20:56:00,46.8,37.2,30.21,SSE,149,10.0,14.0,69,0.00,,,0.00,meteohub,2013-01-27 02:56:00,
2013-01-26 21:01:00,46.6,37.4,30.21,SE,124,8.0,16.0,70,0.00,,,0.00,meteohub,2013-01-27 03:01:00,
2013-01-26 21:06:00,46.2,37.0,30.21,SSE,158,17.0,17.0,70,0.00,,,0.00,meteohub,2013-01-27 03:06:00,
2013-01-26 21:11:00,46.2,37.4,30.21,ESE,121,4.0,17.0,71,0.00,,,0.00,meteohub,2013-01-27 03:11:00,
2013-01-26 21:16:00,46.2,37.4,30.22,SSE,158,7.0,17.0,71,0.00,,,0.00,meteohub,2013-01-27 03:16:00,
2013-01-26 21:21:00,46.2,37.0,30.22,SSE,167,14.0,17.0,70,0.00,,,0.00,meteohub,2013-01-27 03:21:00,
2013-01-26 21:26:00,46.4,37.2,30.22,SE,140,7.0,17.0,70,0.00,,,0.00,meteohub,2013-01-27 03:26:00,
2013-01-26 21:31:00,46.4,37.2,30.22,SSE,147,10.0,15.0,70,0.00,,,0.00,meteohub,2013-01-27 03:31:00,
2013-01-26 21:36:00,46.2,37.0,30.21,SSE,153,10.0,15.0,70,0.00,,,0.00,meteohub,2013-01-27 03:36:00,
2013-01-26 21:41:00,46.2,37.4,30.21,SE,124,11.0,16.0,71,0.00,,,0.00,meteohub,2013-01-27 03:41:00,
2013-01-26 21:46:00,46.0,37.6,30.20,SSE,156,11.0,16.0,72,0.00,,,0.00,meteohub,2013-01-27 03:46:00,
2013-01-26 21:51:00,45.9,37.4,30.21,SE,127,12.0,17.0,72,0.00,,,0.00,meteohub,2013-01-27 03:51:00,
2013-01-26 21:56:00,45.7,37.6,30.21,SSE,158,7.0,17.0,73,0.00,,,0.00,meteohub,2013-01-27 03:56:00,
2013-01-26 22:01:00,45.7,37.6,30.20,SE,146,10.0,16.0,73,0.00,,,0.00,meteohub,2013-01-27 04:01:00,
2013-01-26 22:06:00,45.7,37.9,30.20,SE,126,8.0,21.0,74,0.00,,,0.00,meteohub,2013-01-27 04:06:00,
2013-01-26 22:11:00,45.5,37.8,30.20,SE,139,8.0,21.0,74,0.00,,,0.00,meteohub,2013-01-27 04:11:00,
2013-01-26 22:16:00,45.3,37.9,30.20,South,172,5.0,15.0,75,0.00,,,0.00,meteohub,2013-01-27 04:16:00,
2013-01-26 22:21:00,45.1,37.9,30.20,ESE,119,6.0,15.0,76,0.00,,,0.00,meteohub,2013-01-27 04:21:00,
2013-01-26 22:26:00,45.1,37.9,30.20,SW,217,6.0,15.0,76,0.00,,,0.00,meteohub,2013-01-27 04:26:00,
2013-01-26 22:31:00,45.0,38.1,30.20,SSE,163,6.0,14.0,77,0.00,,,0.00,meteohub,2013-01-27 04:31:00,
2013-01-26 22:36:00,45.0,38.1,30.21,SSE,158,4.0,13.0,77,0.00,,,0.00,meteohub,2013-01-27 04:36:00,
2013-01-26 22:41:00,45.0,38.1,30.20,South,185,7.0,13.0,77,0.00,,,0.00,meteohub,2013-01-27 04:41:00,
2013-01-26 22:46:00,45.0,38.1,30.20,South,177,9.0,13.0,77,0.00,,,0.00,meteohub,2013-01-27 04:46:00,
2013-01-26 22:51:00,45.0,38.1,30.20,SE,127,11.0,16.0,77,0.00,,,0.00,meteohub,2013-01-27 04:51:00,
2013-01-26 22:56:00,45.0,38.1,30.20,SE,137,11.0,16.0,77,0.00,,,0.00,meteohub,2013-01-27 04:56:00,
2013-01-26 23:00:00,45.0,38.1,30.21,SE,146,9.0,16.0,77,0.00,,,0.00,meteohub,2013-01-27 05:00:00,
2013-01-26 23:01:00,45.0,38.5,30.21,South,173,10.0,16.0,78,0.00,,,0.00,meteohub,2013-01-27 05:01:00,
2013-01-26 23:02:00,45.0,38.5,30.21,SSE,158,6.0,16.0,78,0.00,,,0.00,meteohub,2013-01-27 05:02:00,
2013-01-26 23:03:00,45.0,38.5,30.21,SE,134,8.0,16.0,78,0.00,,,0.00,meteohub,2013-01-27 05:03:00,
2013-01-26 23:08:00,44.8,38.3,30.21,SSE,155,7.0,16.0,78,0.00,,,0.00,meteohub,2013-01-27 05:08:00,
2013-01-26 23:13:00,44.6,38.5,30.21,SSE,155,6.0,16.0,79,0.00,,,0.00,meteohub,2013-01-27 05:13:00,
2013-01-26 23:18:00,44.4,38.3,30.22,SE,132,12.0,14.0,79,0.00,,,0.00,meteohub,2013-01-27 05:18:00,
2013-01-26 23:23:00,44.4,38.7,30.21,SSE,156,11.0,18.0,80,0.00,,,0.00,meteohub,2013-01-27 05:23:00,
2013-01-26 23:28:00,44.2,38.5,30.21,SSE,149,13.0,18.0,80,0.00,,,0.00,meteohub,2013-01-27 05:28:00,
2013-01-26 23:33:00,44.2,38.5,30.22,SSE,153,7.0,18.0,80,0.00,,,0.00,meteohub,2013-01-27 05:33:00,
2013-01-26 23:38:00,44.2,38.5,30.21,SE,138,5.0,17.0,80,0.00,,,0.00,meteohub,2013-01-27 05:38:00,
2013-01-26 23:43:00,44.1,38.7,30.20,SE,129,10.0,17.0,81,0.00,,,0.00,meteohub,2013-01-27 05:43:00,
2013-01-26 23:48:00,44.1,38.7,30.21,SE,133,11.0,17.0,81,0.00,,,0.00,meteohub,2013-01-27 05:48:00,
2013-01-26 23:53:00,44.1,38.7,30.20,SSE,150,10.0,17.0,81,0.00,,,0.00,meteohub,2013-01-27 05:53:00,
2013-01-26 23:58:00,43.9,38.5,30.19,SE,139,8.0,17.0,81,0.00,,,0.00,meteohub,2013-01-27 05:58:00,